Time,TemperatureF,DewpointF,PressureIn,WindDirection,WindDirectionDegrees,WindSpeedMPH,WindSpeedGustMPH,Humidity,HourlyPrecipIn,Conditions,Clouds,dailyrainin,SoftwareType,DateUTC
2013-08-19 00:00:00,61.7,56.5,30.03,SSW,201,2.0,2.0,83,0.00,,,0.00,Wunderground v.1.15,2013-08-19 04:00:00,
2013-08-19 00:05:00,61.6,56.4,30.03,SSW,200,1.0,3.0,83,0.00,,,0.00,Wunderground v.1.15,2013-08-19 04:05:00,
2013-08-19 00:10:00,61.6,56.0,30.03,South,187,2.0,2.0,82,0.00,,,0.00,Wunderground v.1.15,2013-08-19 04:10:00,
2013-08-19 00:15:00,61.6,56.0,30.03,South,175,2.0,2.0,82,0.00,,,0.00,Wunderground v.1.15,2013-08-19 04:15:00,
2013-08-19 00:20:00,61.6,56.4,30.03,South,175,2.0,3.0,83,0.00,,,0.00,Wunderground v.1.15,2013-08-19 04:20:00,
2013-08-19 00:30:00,61.5,56.3,30.03,South,181,2.0,2.0,83,0.00,,,0.00,Wunderground v.1.15,2013-08-19 04:30:00,
2013-08-19 00:40:00,61.5,56.3,30.03,SSE,167,2.0,2.0,83,0.00,,,0.00,Wunderground v.1.15,2013-08-19 04:40:00,
2013-08-19 00:45:00,61.6,56.4,30.02,South,185,2.0,3.0,83,0.00,,,0.00,Wunderground v.1.15,2013-08-19 04:45:00,
2013-08-19 00:50:00,61.5,56.0,30.02,South,187,2.0,2.0,82,0.00,,,0.00,Wunderground v.1.15,2013-08-19 04:50:00,
2013-08-19 00:55:00,61.5,56.0,30.02,South,191,2.0,3.0,82,0.00,,,0.00,Wunderground v.1.15,2013-08-19 04:55:00,
2013-08-19 01:00:00,61.5,56.0,30.02,South,181,2.0,2.0,82,0.00,,,0.00,Wunderground v.1.15,2013-08-19 05:00:00,
2013-08-19 01:10:00,61.4,56.2,30.02,South,185,2.0,3.0,83,0.00,,,0.00,Wunderground v.1.15,2013-08-19 05:10:00,
2013-08-19 01:20:00,61.2,55.7,30.02,South,187,3.0,3.0,82,0.00,,,0.00,Wunderground v.1.15,2013-08-19 05:20:00,
2013-08-19 01:30:00,61.3,55.4,30.02,South,187,3.0,3.0,81,0.00,,,0.00,Wunderground v.1.15,2013-08-19 05:30:00,
2013-08-19 01:40:00,61.2,55.3,30.02,South,191,3.0,5.0,81,0.00,,,0.00,Wunderground v.1.15,2013-08-19 05:40:00,
2013-08-19 01:50:00,61.2,55.0,30.02,South,186,4.0,5.0,80,0.00,,,0.00,Wunderground v.1.15,2013-08-19 05:50:00,
2013-08-19 02:00:00,61.5,54.9,30.02,South,174,5.0,5.0,79,0.00,,,0.00,Wunderground v.1.15,2013-08-19 06:00:00,
2013-08-19 02:10:00,61.5,55.3,30.02,South,190,4.0,5.0,80,0.00,,,0.00,Wunderground v.1.15,2013-08-19 06:10:00,
2013-08-19 02:20:00,61.4,55.2,30.01,SSW,201,4.0,6.0,80,0.00,,,0.00,Wunderground v.1.15,2013-08-19 06:20:00,
2013-08-19 02:30:00,61.7,55.1,30.01,South,189,5.0,6.0,79,0.00,,,0.00,Wunderground v.1.15,2013-08-19 06:30:00,
2013-08-19 02:40:00,62.5,54.1,30.01,SSW,205,6.0,6.0,74,0.00,,,0.00,Wunderground v.1.15,2013-08-19 06:40:00,
2013-08-19 02:50:00,62.8,55.1,30.00,SSW,197,5.0,5.0,76,0.00,,,0.00,Wunderground v.1.15,2013-08-19 06:50:00,
2013-08-19 03:00:00,62.9,55.6,30.00,SSE,164,7.0,7.0,77,0.00,,,0.00,Wunderground v.1.15,2013-08-19 07:00:00,
2013-08-19 03:10:00,63.0,56.4,29.99,South,187,6.0,9.0,79,0.00,,,0.00,Wunderground v.1.15,2013-08-19 07:10:00,
2013-08-19 03:20:00,63.1,57.2,29.99,SSE,164,7.0,7.0,81,0.00,,,0.00,Wunderground v.1.15,2013-08-19 07:20:00,
2013-08-19 03:30:00,62.9,57.3,30.00,SSW,198,7.0,7.0,82,0.00,,,0.00,Wunderground v.1.15,2013-08-19 07:30:00,
2013-08-19 03:40:00,62.8,57.6,30.00,West,260,6.0,6.0,83,0.00,,,0.00,Wunderground v.1.15,2013-08-19 07:40:00,
2013-08-19 03:50:00,62.8,57.6,30.00,SW,236,6.0,10.0,83,0.00,,,0.00,Wunderground v.1.15,2013-08-19 07:50:00,
2013-08-19 04:00:00,62.6,57.7,30.00,SSW,195,7.0,7.0,84,0.00,,,0.00,Wunderground v.1.15,2013-08-19 08:00:00,
2013-08-19 04:10:00,62.4,57.8,30.00,SW,217,6.0,7.0,85,0.00,,,0.00,Wunderground v.1.15,2013-08-19 08:10:00,
2013-08-19 04:20:00,62.4,57.8,30.00,SW,216,7.0,10.0,85,0.00,,,0.00,Wunderground v.1.15,2013-08-19 08:20:00,
2013-08-19 04:30:00,62.4,58.2,30.00,SW,234,7.0,7.0,86,0.00,,,0.00,Wunderground v.1.15,2013-08-19 08:30:00,
2013-08-19 04:40:00,62.3,58.1,30.00,South,191,7.0,9.0,86,0.00,,,0.00,Wunderground v.1.15,2013-08-19 08:40:00,
2013-08-19 04:50:00,62.1,57.9,30.00,South,184,6.0,9.0,86,0.00,,,0.00,Wunderground v.1.15,2013-08-19 08:50:00,
2013-08-19 05:00:00,62.0,57.8,30.00,SSW,192,6.0,6.0,86,0.00,,,0.00,Wunderground v.1.15,2013-08-19 09:00:00,
2013-08-19 05:10:00,61.6,57.7,30.00,South,171,7.0,7.0,87,0.00,,,0.00,Wunderground v.1.15,2013-08-19 09:10:00,
2013-08-19 05:20:00,61.4,57.8,30.00,South,189,6.0,6.0,88,0.00,,,0.00,Wunderground v.1.15,2013-08-19 09:20:00,
2013-08-19 05:30:00,61.4,57.8,30.00,South,175,7.0,7.0,88,0.00,,,0.00,Wunderground v.1.15,2013-08-19 09:30:00,
2013-08-19 05:40:00,61.6,58.0,30.00,South,184,6.0,7.0,88,0.00,,,0.00,Wunderground v.1.15,2013-08-19 09:40:00,
2013-08-19 05:50:00,62.0,58.1,30.00,South,189,6.0,9.0,87,0.00,,,0.00,Wunderground v.1.15,2013-08-19 09:50:00,
2013-08-19 06:00:00,62.3,58.1,30.00,SSW,199,5.0,5.0,86,0.00,,,0.00,Wunderground v.1.15,2013-08-19 10:00:00,
2013-08-19 06:10:00,62.6,58.4,30.00,South,185,5.0,5.0,86,0.00,,,0.00,Wunderground v.1.15,2013-08-19 10:10:00,
2013-08-19 06:20:00,62.7,58.1,30.00,SSW,206,6.0,6.0,85,0.00,,,0.00,Wunderground v.1.15,2013-08-19 10:20:00,
2013-08-19 06:30:00,62.5,58.3,30.00,WSW,243,4.0,4.0,86,0.00,,,0.00,Wunderground v.1.15,2013-08-19 10:30:00,
2013-08-19 06:40:00,62.4,58.2,30.00,SW,218,4.0,5.0,86,0.00,,,0.00,Wunderground v.1.15,2013-08-19 10:40:00,
2013-08-19 06:50:00,62.3,58.1,30.00,South,184,4.0,4.0,86,0.00,,,0.00,Wunderground v.1.15,2013-08-19 10:50:00,
2013-08-19 07:00:00,62.5,58.6,30.00,SW,220,4.0,5.0,87,0.00,,,0.00,Wunderground v.1.15,2013-08-19 11:00:00,
2013-08-19 07:10:00,62.9,59.0,30.00,SW,219,3.0,3.0,87,0.00,,,0.00,Wunderground v.1.15,2013-08-19 11:10:00,
2013-08-19 07:20:00,63.4,59.5,30.00,WNW,296,3.0,3.0,87,0.00,,,0.00,Wunderground v.1.15,2013-08-19 11:20:00,
2013-08-19 07:30:00,64.5,60.2,30.00,SW,226,4.0,4.0,86,0.00,,,0.00,Wunderground v.1.15,2013-08-19 11:30:00,
2013-08-19 07:40:00,65.1,60.5,30.00,SW,232,3.0,6.0,85,0.00,,,0.00,Wunderground v.1.15,2013-08-19 11:40:00,
2013-08-19 07:50:00,65.4,60.8,30.00,NNW,343,3.0,3.0,85,0.00,,,0.00,Wunderground v.1.15,2013-08-19 11:50:00,
2013-08-19 08:00:00,65.7,61.1,30.00,ESE,118,3.0,3.0,85,0.00,,,0.00,Wunderground v.1.15,2013-08-19 12:00:00,
2013-08-19 08:10:00,66.1,61.5,30.00,NW,324,3.0,3.0,85,0.00,,,0.00,Wunderground v.1.15,2013-08-19 12:10:00,
2013-08-19 08:20:00,66.2,61.6,30.00,WNW,293,4.0,4.0,85,0.00,,,0.00,Wunderground v.1.15,2013-08-19 12:20:00,
2013-08-19 08:30:00,66.4,62.1,30.00,North,349,3.0,3.0,86,0.00,,,0.00,Wunderground v.1.15,2013-08-19 12:30:00,
2013-08-19 08:40:00,67.2,62.9,30.00,NNW,328,3.0,3.0,86,0.00,,,0.00,Wunderground v.1.15,2013-08-19 12:40:00,
2013-08-19 08:50:00,67.5,63.2,29.99,NW,316,3.0,4.0,86,0.00,,,0.00,Wunderground v.1.15,2013-08-19 12:50:00,
2013-08-19 09:00:00,68.2,63.9,29.99,NW,315,4.0,12.0,86,0.00,,,0.00,Wunderground v.1.15,2013-08-19 13:00:00,
2013-08-19 09:10:00,68.7,64.3,29.99,NNW,333,4.0,4.0,86,0.00,,,0.00,Wunderground v.1.15,2013-08-19 13:10:00,
2013-08-19 09:20:00,69.0,64.3,29.99,WNW,293,4.0,4.0,85,0.00,,,0.00,Wunderground v.1.15,2013-08-19 13:20:00,
2013-08-19 09:30:00,69.3,64.9,29.98,NNW,328,4.0,4.0,86,0.00,,,0.00,Wunderground v.1.15,2013-08-19 13:30:00,
2013-08-19 09:40:00,69.7,65.3,29.98,WNW,299,4.0,4.0,86,0.00,,,0.00,Wunderground v.1.15,2013-08-19 13:40:00,
2013-08-19 09:50:00,70.1,65.4,29.98,NW,304,4.0,4.0,85,0.00,,,0.00,Wunderground v.1.15,2013-08-19 13:50:00,
2013-08-19 10:00:00,70.4,65.3,29.98,NNW,348,4.0,4.0,84,0.00,,,0.00,Wunderground v.1.15,2013-08-19 14:00:00,
2013-08-19 10:10:00,70.6,65.2,29.98,West,266,3.0,7.0,83,0.00,,,0.00,Wunderground v.1.15,2013-08-19 14:10:00,
2013-08-19 10:20:00,71.0,65.2,29.98,West,267,4.0,5.0,82,0.00,,,0.00,Wunderground v.1.15,2013-08-19 14:20:00,
2013-08-19 10:30:00,71.2,65.4,29.98,NNW,337,4.0,5.0,82,0.00,,,0.00,Wunderground v.1.15,2013-08-19 14:30:00,
2013-08-19 10:40:00,71.3,65.5,29.98,WNW,287,4.0,4.0,82,0.00,,,0.00,Wunderground v.1.15,2013-08-19 14:40:00,
2013-08-19 10:50:00,71.6,65.8,29.99,North,6,4.0,9.0,82,0.00,,,0.00,Wunderground v.1.15,2013-08-19 14:50:00,
2013-08-19 11:00:00,71.9,65.8,29.98,NNW,337,4.0,4.0,81,0.00,,,0.00,Wunderground v.1.15,2013-08-19 15:00:00,
2013-08-19 11:10:00,72.2,65.7,29.98,West,276,5.0,5.0,80,0.00,,,0.00,Wunderground v.1.15,2013-08-19 15:10:00,
2013-08-19 11:20:00,72.0,65.8,29.98,WNW,295,4.0,4.0,81,0.00,,,0.00,Wunderground v.1.15,2013-08-19 15:20:00,
2013-08-19 11:30:00,72.0,65.5,29.97,North,358,4.0,5.0,80,0.00,,,0.00,Wunderground v.1.15,2013-08-19 15:30:00,
2013-08-19 11:40:00,72.2,65.3,29.97,North,353,3.0,5.0,79,0.00,,,0.00,Wunderground v.1.15,2013-08-19 15:40:00,
2013-08-19 11:50:00,73.0,65.7,29.97,NW,308,3.0,4.0,78,0.00,,,0.00,Wunderground v.1.15,2013-08-19 15:50:00,
2013-08-19 12:00:00,73.3,65.7,29.97,North,350,3.0,3.0,77,0.00,,,0.00,Wunderground v.1.15,2013-08-19 16:00:00,
2013-08-19 12:10:00,73.1,65.5,29.97,NE,45,3.0,3.0,77,0.00,,,0.00,Wunderground v.1.15,2013-08-19 16:10:00,
2013-08-19 12:20:00,73.1,65.8,29.97,West,273,3.0,4.0,78,0.00,,,0.00,Wunderground v.1.15,2013-08-19 16:20:00,
2013-08-19 12:30:00,73.5,66.2,29.97,North,9,3.0,4.0,78,0.00,,,0.00,Wunderground v.1.15,2013-08-19 16:30:00,
2013-08-19 12:40:00,73.9,66.6,29.97,WSW,241,3.0,3.0,78,0.00,,,0.00,Wunderground v.1.15,2013-08-19 16:40:00,
2013-08-19 12:50:00,74.4,67.1,29.97,WSW,250,3.0,3.0,78,0.00,,,0.00,Wunderground v.1.15,2013-08-19 16:50:00,
2013-08-19 13:00:00,74.7,67.4,29.97,NNE,23,2.0,2.0,78,0.00,,,0.00,Wunderground v.1.15,2013-08-19 17:00:00,
2013-08-19 13:10:00,74.3,67.4,29.97,NNW,347,3.0,4.0,79,0.00,,,0.00,Wunderground v.1.15,2013-08-19 17:10:00,
2013-08-19 13:20:00,74.3,67.4,29.97,West,268,2.0,3.0,79,0.00,,,0.00,Wunderground v.1.15,2013-08-19 17:20:00,
2013-08-19 13:30:00,73.9,67.3,29.96,NNW,335,2.0,2.0,80,0.00,,,0.00,Wunderground v.1.15,2013-08-19 17:30:00,
2013-08-19 13:40:00,74.2,65.8,29.96,West,271,3.0,4.0,75,0.00,,,0.00,Wunderground v.1.15,2013-08-19 17:40:00,
2013-08-19 13:50:00,75.1,66.2,29.95,South,182,2.0,2.0,74,0.00,,,0.00,Wunderground v.1.15,2013-08-19 17:50:00,
2013-08-19 14:00:00,75.4,65.3,29.95,West,260,2.0,2.0,71,0.00,,,0.00,Wunderground v.1.15,2013-08-19 18:00:00,
2013-08-19 14:10:00,75.5,67.0,29.95,NW,315,2.0,3.0,75,0.00,,,0.00,Wunderground v.1.15,2013-08-19 18:10:00,
2013-08-19 14:20:00,75.8,66.5,29.94,SW,218,3.0,3.0,73,0.00,,,0.00,Wunderground v.1.15,2013-08-19 18:20:00,
2013-08-19 14:30:00,76.0,66.7,29.94,WNW,289,2.0,2.0,73,0.00,,,0.00,Wunderground v.1.15,2013-08-19 18:30:00,
2013-08-19 14:40:00,76.0,67.1,29.94,NNW,346,2.0,4.0,74,0.00,,,0.00,Wunderground v.1.15,2013-08-19 18:40:00,
2013-08-19 14:50:00,75.6,66.7,29.94,SSW,213,2.0,2.0,74,0.00,,,0.00,Wunderground v.1.15,2013-08-19 18:50:00,
2013-08-19 15:00:00,75.4,66.1,29.93,WSW,246,2.0,2.0,73,0.00,,,0.00,Wunderground v.1.15,2013-08-19 19:00:00,
2013-08-19 15:10:00,75.4,65.3,29.93,WNW,288,2.0,3.0,71,0.00,,,0.00,Wunderground v.1.15,2013-08-19 19:10:00,
2013-08-19 15:20:00,75.8,65.7,29.93,SW,222,2.0,3.0,71,0.00,,,0.00,Wunderground v.1.15,2013-08-19 19:20:00,
2013-08-19 15:30:00,76.1,65.2,29.93,South,185,2.0,3.0,69,0.00,,,0.00,Wunderground v.1.15,2013-08-19 19:30:00,
2013-08-19 15:40:00,76.0,64.7,29.93,SW,233,3.0,3.0,68,0.00,,,0.00,Wunderground v.1.15,2013-08-19 19:40:00,
2013-08-19 15:50:00,75.9,63.7,29.93,WNW,291,2.0,3.0,66,0.00,,,0.00,Wunderground v.1.15,2013-08-19 19:50:00,
2013-08-19 16:00:00,76.0,64.7,29.92,SW,214,2.0,2.0,68,0.00,,,0.00,Wunderground v.1.15,2013-08-19 20:00:00,
2013-08-19 16:10:00,76.0,64.7,29.92,West,264,2.0,2.0,68,0.00,,,0.00,Wunderground v.1.15,2013-08-19 20:10:00,
2013-08-19 16:20:00,76.2,65.3,29.92,SSW,204,3.0,3.0,69,0.00,,,0.00,Wunderground v.1.15,2013-08-19 20:20:00,
2013-08-19 16:30:00,76.5,65.1,29.92,SW,221,3.0,3.0,68,0.00,,,0.00,Wunderground v.1.15,2013-08-19 20:30:00,
2013-08-19 16:40:00,76.3,65.0,29.92,SSW,200,3.0,3.0,68,0.00,,,0.00,Wunderground v.1.15,2013-08-19 20:40:00,
2013-08-19 16:50:00,76.1,64.8,29.92,SSW,199,3.0,4.0,68,0.00,,,0.00,Wunderground v.1.15,2013-08-19 20:50:00,
2013-08-19 17:00:00,75.9,64.6,29.93,South,182,3.0,3.0,68,0.00,,,0.00,Wunderground v.1.15,2013-08-19 21:00:00,
2013-08-19 17:10:00,75.9,64.6,29.93,South,187,3.0,3.0,68,0.00,,,0.00,Wunderground v.1.15,2013-08-19 21:10:00,
2013-08-19 17:20:00,75.9,65.4,29.93,SSW,206,4.0,4.0,70,0.00,,,0.00,Wunderground v.1.15,2013-08-19 21:20:00,
2013-08-19 17:30:00,75.6,65.5,29.93,SSE,158,4.0,4.0,71,0.00,,,0.00,Wunderground v.1.15,2013-08-19 21:30:00,
2013-08-19 17:40:00,75.2,65.9,29.93,SW,226,4.0,4.0,73,0.00,,,0.00,Wunderground v.1.15,2013-08-19 21:40:00,
2013-08-19 17:50:00,75.0,65.4,29.93,SSW,197,3.0,6.0,72,0.00,,,0.00,Wunderground v.1.15,2013-08-19 21:50:00,
2013-08-19 18:00:00,74.8,65.2,29.93,SW,218,5.0,5.0,72,0.00,,,0.00,Wunderground v.1.15,2013-08-19 22:00:00,
2013-08-19 18:10:00,74.7,64.7,29.93,SSW,209,4.0,7.0,71,0.00,,,0.00,Wunderground v.1.15,2013-08-19 22:10:00,
2013-08-19 18:20:00,74.8,64.4,29.93,South,189,5.0,5.0,70,0.00,,,0.00,Wunderground v.1.15,2013-08-19 22:20:00,
2013-08-19 18:30:00,75.1,64.6,29.93,SW,214,4.0,7.0,70,0.00,,,0.00,Wunderground v.1.15,2013-08-19 22:30:00,
2013-08-19 18:40:00,74.8,63.9,29.93,South,177,5.0,5.0,69,0.00,,,0.00,Wunderground v.1.15,2013-08-19 22:40:00,
2013-08-19 18:50:00,74.1,63.7,29.93,South,183,5.0,5.0,70,0.00,,,0.00,Wunderground v.1.15,2013-08-19 22:50:00,
2013-08-19 19:00:00,73.7,64.1,29.93,South,176,6.0,6.0,72,0.00,,,0.00,Wunderground v.1.15,2013-08-19 23:00:00,
2013-08-19 19:10:00,73.3,63.7,29.93,South,187,5.0,5.0,72,0.00,,,0.00,Wunderground v.1.15,2013-08-19 23:10:00,
2013-08-19 19:20:00,72.8,63.6,29.93,South,172,5.0,7.0,73,0.00,,,0.00,Wunderground v.1.15,2013-08-19 23:20:00,
2013-08-19 19:30:00,72.6,64.2,29.94,South,185,4.0,4.0,75,0.00,,,0.00,Wunderground v.1.15,2013-08-19 23:30:00,
2013-08-19 19:40:00,72.3,63.9,29.94,South,189,4.0,4.0,75,0.00,,,0.00,Wunderground v.1.15,2013-08-19 23:40:00,
2013-08-19 19:50:00,71.9,63.9,29.94,South,189,4.0,4.0,76,0.00,,,0.00,Wunderground v.1.15,2013-08-19 23:50:00,
2013-08-19 20:00:00,71.5,63.9,29.93,South,174,4.0,5.0,77,0.00,,,0.00,Wunderground v.1.15,2013-08-20 00:00:00,
2013-08-19 20:10:00,70.9,63.7,29.93,SSW,200,3.0,4.0,78,0.00,,,0.00,Wunderground v.1.15,2013-08-20 00:10:00,
2013-08-19 20:20:00,70.7,63.5,29.93,SSW,206,5.0,7.0,78,0.00,,,0.00,Wunderground v.1.15,2013-08-20 00:20:00,
2013-08-19 20:30:00,70.4,63.2,29.93,South,186,6.0,6.0,78,0.00,,,0.00,Wunderground v.1.15,2013-08-20 00:30:00,
2013-08-19 20:40:00,70.4,63.2,29.93,South,185,5.0,5.0,78,0.00,,,0.00,Wunderground v.1.15,2013-08-20 00:40:00,
2013-08-19 20:50:00,70.3,63.1,29.93,South,181,5.0,7.0,78,0.00,,,0.00,Wunderground v.1.15,2013-08-20 00:50:00,
2013-08-19 21:00:00,70.1,62.6,29.94,SSW,192,6.0,6.0,77,0.00,,,0.00,Wunderground v.1.15,2013-08-20 01:00:00,
2013-08-19 21:10:00,69.9,62.7,29.94,SSW,201,6.0,7.0,78,0.00,,,0.00,Wunderground v.1.15,2013-08-20 01:10:00,
2013-08-19 21:20:00,69.9,62.7,29.94,South,184,5.0,5.0,78,0.00,,,0.00,Wunderground v.1.15,2013-08-20 01:20:00,
2013-08-19 21:30:00,69.7,62.5,29.94,South,183,6.0,6.0,78,0.00,,,0.00,Wunderground v.1.15,2013-08-20 01:30:00,
2013-08-19 21:40:00,69.4,62.2,29.94,SSW,213,7.0,7.0,78,0.00,,,0.00,Wunderground v.1.15,2013-08-20 01:40:00,
2013-08-19 21:50:00,69.3,62.1,29.94,South,172,7.0,7.0,78,0.00,,,0.00,Wunderground v.1.15,2013-08-20 01:50:00,
2013-08-19 22:00:00,69.6,62.1,29.94,SSW,206,5.0,6.0,77,0.00,,,0.00,Wunderground v.1.15,2013-08-20 02:00:00,
2013-08-19 22:10:00,69.8,61.5,29.94,South,183,5.0,5.0,75,0.00,,,0.00,Wunderground v.1.15,2013-08-20 02:10:00,
2013-08-19 22:20:00,70.0,61.7,29.94,SW,226,5.0,5.0,75,0.00,,,0.00,Wunderground v.1.15,2013-08-20 02:20:00,
2013-08-19 22:30:00,70.3,61.6,29.94,WSW,250,5.0,5.0,74,0.00,,,0.00,Wunderground v.1.15,2013-08-20 02:30:00,
2013-08-19 22:40:00,70.2,61.5,29.94,SSW,196,4.0,5.0,74,0.00,,,0.00,Wunderground v.1.15,2013-08-20 02:40:00,
2013-08-19 22:50:00,70.1,61.0,29.95,SW,228,4.0,4.0,73,0.00,,,0.00,Wunderground v.1.15,2013-08-20 02:50:00,
2013-08-19 23:00:00,70.3,60.8,29.95,South,181,4.0,4.0,72,0.00,,,0.00,Wunderground v.1.15,2013-08-20 03:00:00,
2013-08-19 23:10:00,70.5,61.0,29.95,SW,220,4.0,4.0,72,0.00,,,0.00,Wunderground v.1.15,2013-08-20 03:10:00,
2013-08-19 23:20:00,70.7,61.2,29.95,SW,224,4.0,4.0,72,0.00,,,0.00,Wunderground v.1.15,2013-08-20 03:20:00,
2013-08-19 23:30:00,70.6,61.1,29.95,SW,228,4.0,4.0,72,0.00,,,0.00,Wunderground v.1.15,2013-08-20 03:30:00,
2013-08-19 23:40:00,70.6,61.1,29.95,South,176,4.0,4.0,72,0.00,,,0.00,Wunderground v.1.15,2013-08-20 03:40:00,
2013-08-19 23:50:00,70.0,60.9,29.95,South,182,4.0,4.0,73,0.00,,,0.00,Wunderground v.1.15,2013-08-20 03:50:00,